Ичинский

Россия / Камчатский край     55°36′35″N   155°36′46″E
темп.,
°C
ветер,
м/с
пор.,
м/с
влажн.,
%
обл.,
%
осадки,
мм/ч
давл.,
гПа
погр.,
м
28 ноября, вс
вс2823:00−8ссв1217725 0.0 10081049
02:00−8ссв1116721 0.0 1008731
05:00−8ссв914735 0.0 1008619
08:00−8св69735 0.0 1009421
11:00−8св46695 0.0 1009323
14:00−7св456924 0.0 1008377
17:00−9в337015 0.0 1008175
20:00−8юв447211 0.0 1009179
29 ноября, пн
пн2923:00−8юв667581 0.0 1008202
02:00−8ююв7108297 0.0 1008334
05:00−5ююз4688100 0.7 1008487
08:00−2з6757100 0.4 10081473
11:00−2з7857100 0.6 10091454
14:00−2з9958100 0.2 10101350
17:00−2з7759100 0.4 10101277
20:00−2зюз6757100 0.3 10101348
30 ноября, вт
вт3023:00−2юз4566100 0.5 10091036
02:00−4ююв4594100 1.1 1008322
05:00−4ююв5694100 2.6 1007319
08:00−4вюв1295100 1.3 1006229
11:00−3сз9991100 3.0 1006857
14:00−3зсз91062100 0.9 10081604
17:00−3з111258100 1.1 10111899
20:00−3з111358100 0.9 10131901
1 декабря, ср
ср123:00−3з131458100 1.9 10152120
02:00−2з81254100 0.4 10161988
05:00−1зюз111366100 1.3 10161667
08:00−1з91164100 0.6 10171391
11:00−1зюз7960100 1.0 10181436
14:000юз8960100 0.3 10181383
17:00−2ююв7977100 0.3 1017553
20:00−3вюв6974100 0.0 1013301
2 декабря, чт
чт223:00−3всв101490100 1.6 1006520
02:00−3в111495100 9.0 999399
05:00+4ююв182995100 25.3 989861
08:00+6ююв193092100 8.3 983756
11:00+6ююв213188100 11.4 979955
14:00+5ююв152592100 5.2 975762
17:00+2ююз152094100 7.6 9761101
20:00+2ю17227410 0.4 9761477